Home   Weather   Minsk   Past weeks
Flag for Belarus

Past Weather in Minsk, Belarus — Yesterday and Last 2 Weeks

Now
81 °F

Sunny.


Feels Like: 81 °F
Forecast: 71 / 61 °F
Wind: 1 mph from North

Location: Minsk

Current Time: Jul 21, 2019 at 4:45:02 pm

Latest Report: Jul 21, 2019 at 4:00 pm


Visibility: 10 mi

Pressure: 30.04 "Hg

Humidity: 42%

Dew Point: 55 °F

Location of MinskLocation

Past Weather in Minsk — Graph

°F

Minsk Temperature Yesterday

Maximum temperature yesterday: 79 °F (at 3:00 pm)
Minimum temperature yesterday: 50 °F (at 5:00 am)
Average temperature yesterday: 66 °F

High & Low Weather Summary for the Past Weeks

 TemperatureHumidityPressure
High81 °F (Jul 21, 1:00 pm)100% (Jul 7, 6:30 am)30.07 "Hg (Jul 7, 6:30 am)
Low46 °F (Jul 13, 1:30 am)36% (Jul 16, 4:30 pm)29.53 "Hg (Jul 7, 3:00 pm)
Average60 °F78%29.75 "Hg
* Reported Jul 6 3:00 pm — Jul 21 3:00 pm, Minsk. Weather by CustomWeather, © 2019

Note: Actual official high and low records may vary slightly from our data, if they occured in-between our weather recording intervals... More about our weather records

Advertising

Minsk Weather History for the Previous 24 Hours

Scroll right to see more
 ConditionsComfort  
Time TempWeatherWind HumidityBarometerVisibility
3:00 pm
Sun, Jul 21
79 °FSunny.1 mph45%30.04 "Hg10 mi
2:30 pm79 °FSunny.3 mph45%30.04 "Hg10 mi
2:00 pm79 °FPassing clouds.3 mph48%30.07 "HgN/A
1:30 pm81 °FSunny.3 mph45%30.07 "Hg10 mi
1:00 pm81 °FSunny.3 mph39%30.07 "Hg10 mi
12:30 pm79 °FSunny.1 mph45%30.07 "Hg10 mi
12:00 pm79 °FPassing clouds.3 mph48%30.07 "HgN/A
11:30 am77 °FSunny.1 mph51%30.07 "Hg10 mi
11:00 am77 °FSunny.1 mph47%30.07 "Hg10 mi
10:30 am75 °FSunny.1 mph50%30.07 "Hg10 mi
10:00 am73 °FSunny.1 mph57%30.07 "Hg10 mi
9:30 am73 °FSunny.No wind57%30.07 "Hg10 mi
9:00 am70 °FSunny.1 mph64%30.07 "Hg10 mi
8:30 am68 °FSunny.1 mph64%30.07 "Hg10 mi
8:00 am64 °FSunny.1 mph73%30.07 "Hg10 mi
7:30 am64 °FSunny.1 mph73%30.07 "Hg10 mi
7:00 am61 °FSunny.No wind83%30.07 "Hg10 mi
6:30 am55 °FSunny.1 mph94%30.07 "Hg10 mi
6:00 am54 °FClear.No wind94%30.07 "HgN/A
5:30 am52 °FClear.No wind100%30.04 "Hg10 mi
5:00 am54 °FClear.No wind94%30.04 "Hg10 mi
4:30 am54 °FClear.1 mph94%30.04 "Hg10 mi
4:00 am54 °FClear.1 mph94%30.07 "Hg10 mi
3:30 am54 °FClear.1 mph94%30.07 "Hg10 mi
3:00 am55 °FClear.1 mph94%30.07 "Hg10 mi
2:30 am55 °FClear.No wind94%30.07 "Hg10 mi
2:00 am57 °FClear.No wind88%30.07 "Hg10 mi
1:30 am57 °FClear.No wind94%30.07 "Hg10 mi
1:00 am59 °FClear.No wind88%30.07 "Hg10 mi
12:30 am57 °FClear.1 mph94%30.04 "Hg10 mi
12:00 am59 °FClear.1 mph88%30.04 "Hg10 mi
11:30 pm
Sat, Jul 20
61 °FClear.No wind83%30.04 "Hg10 mi
11:00 pm64 °FClear.1 mph73%30.04 "Hg10 mi
10:30 pm63 °FClear.No wind77%30.04 "Hg10 mi
10:00 pm64 °FSunny.No wind78%30.04 "Hg10 mi
9:30 pm66 °FSunny.No wind68%30.04 "Hg10 mi
9:00 pm70 °FSunny.1 mph64%30.01 "Hg10 mi
8:30 pm75 °FSunny.3 mph50%30.01 "Hg10 mi
8:00 pm77 °FSunny.3 mph44%30.01 "Hg10 mi
7:30 pm79 °FSunny.6 mph39%30.01 "Hg10 mi
7:00 pm79 °FSunny.8 mph39%30.01 "Hg10 mi
6:30 pm79 °FPassing clouds.8 mph39%30.01 "HgN/A
6:00 pm79 °FPassing clouds.8 mph39%30.01 "HgN/A
5:30 pm79 °FPassing clouds.8 mph39%30.01 "HgN/A
5:00 pm79 °FPassing clouds.10 mph37%30.01 "HgN/A
4:30 pm79 °FPassing clouds.8 mph37%30.01 "HgN/A
4:00 pm79 °FPassing clouds.10 mph37%30.01 "HgN/A
Weather by CustomWeather, © 2019

See weather overview